| time (UTC) | temp F | wind direction | speed knots | gust knots | rain 1hr in | rain 24hr in | rain mn in | humidity % | barometer mb |
| 20260504042539 | 51 | 224 | 5.2 | 10.4 | 0.00 | 0.00 | 0.00 | 59 | 1005.4 |
| 20260504042038 | 51 | 221 | 4.3 | 10.4 | 0.00 | 0.00 | 0.00 | 59 | 1005.3 |
| 20260504041542 | 51 | 215 | 5.2 | 10.4 | 0.00 | 0.00 | 0.00 | 59 | 1005.4 |
| 20260504041038 | 51 | 231 | 6.1 | 10.4 | 0.00 | 0.00 | 0.00 | 59 | 1005.4 |
| 20260504040538 | 51 | 224 | 2.6 | 11.3 | 0.00 | 0.00 | 0.00 | 59 | 1005.4 |
| 20260504040049 | 51 | 226 | 3.5 | 11.3 | 0.00 | 0.00 | 0.00 | 59 | 1005.4 |
| 20260504035540 | 51 | 226 | 2.6 | 9.6 | 0.00 | 0.00 | 0.00 | 58 | 1005.5 |
| 20260504035042 | 51 | 221 | 2.6 | 6.1 | 0.00 | 0.00 | 0.00 | 58 | 1005.4 |
| 20260504034600 | 51 | 237 | 0.9 | 7.8 | 0.00 | 0.00 | 0.00 | 60 | 1005.4 |
| 20260504034038 | 51 | 236 | 2.6 | 9.6 | 0.00 | 0.00 | 0.00 | 58 | 1005.5 |
| 20260504033539 | 51 | 248 | 3.5 | 11.3 | 0.00 | 0.00 | 0.00 | 59 | 1005.6 |
| 20260504033044 | 51 | 0 | 1.7 | 11.3 | 0.00 | 0.00 | 0.00 | 59 | 1005.6 |
| 20260504032539 | 51 | 226 | 3.5 | 13.0 | 0.00 | 0.00 | 0.00 | 59 | 1005.6 |
| 20260504032039 | 51 | 258 | 2.6 | 16.5 | 0.00 | 0.00 | 0.00 | 59 | 1005.7 |
| 20260504031544 | 51 | 226 | 7.8 | 16.5 | 0.00 | 0.00 | 0.00 | 58 | 1005.7 |
| 20260504031038 | 51 | 253 | 7.0 | 13.9 | 0.00 | 0.00 | 0.00 | 57 | 1005.7 |
| 20260504030540 | 52 | 283 | 5.2 | 13.0 | 0.00 | 0.00 | 0.00 | 57 | 1005.7 |
| 20260504030044 | 52 | 240 | 4.3 | 11.3 | 0.00 | 0.00 | 0.00 | 55 | 1005.7 |
| 20260504025539 | 52 | 220 | 4.3 | 13.0 | 0.00 | 0.00 | 0.00 | 54 | 1005.7 |
| 20260504025040 | 52 | 251 | 4.3 | 13.0 | 0.00 | 0.00 | 0.00 | 53 | 1005.7 |
| 20260504024544 | 52 | 264 | 3.5 | 12.2 | 0.00 | 0.00 | 0.00 | 53 | 1005.6 |
| 20260504024039 | 52 | 253 | 2.6 | 12.2 | 0.00 | 0.00 | 0.00 | 51 | 1005.7 |
| 20260504023538 | 53 | 228 | 3.5 | 12.2 | 0.00 | 0.00 | 0.00 | 51 | 1005.7 |
| 20260504023048 | 53 | 279 | 3.5 | 13.0 | 0.00 | 0.00 | 0.00 | 50 | 1005.8 |
| 20260504022539 | 53 | 251 | 4.3 | 13.0 | 0.00 | 0.00 | 0.00 | 49 | 1005.8 |
| 20260504022039 | 53 | 228 | 4.3 | 12.2 | 0.00 | 0.00 | 0.00 | 49 | 1005.8 |
| 20260504021544 | 53 | 240 | 4.3 | 12.2 | 0.00 | 0.00 | 0.00 | 48 | 1005.8 |
| 20260504021039 | 53 | 227 | 5.2 | 12.2 | 0.00 | 0.00 | 0.00 | 47 | 1005.8 |
| 20260504020540 | 53 | 292 | 0.9 | 3.5 | 0.00 | 0.00 | 0.00 | 47 | 1005.9 |
| 20260504020045 | 53 | 239 | 0.9 | 4.3 | 0.00 | 0.00 | 0.00 | 47 | 1005.9 |
| 20260504015540 | 53 | 0 | 0.0 | 4.3 | 0.00 | 0.00 | 0.00 | 45 | 1005.8 |
| 20260504015039 | 53 | 263 | 0.9 | 5.2 | 0.00 | 0.00 | 0.00 | 45 | 1005.7 |
| 20260504014600 | 53 | 257 | 1.7 | 5.2 | 0.00 | 0.00 | 0.00 | 45 | 1005.7 |
| 20260504014038 | 53 | 0 | 0.0 | 3.5 | 0.00 | 0.00 | 0.00 | 46 | 1005.7 |
| 20260504013539 | 53 | 263 | 0.9 | 5.2 | 0.00 | 0.00 | 0.00 | 44 | 1005.7 |
| 20260504013050 | 54 | 266 | 0.9 | 6.1 | 0.00 | 0.00 | 0.00 | 44 | 1005.7 |
| 20260504012539 | 54 | 261 | 2.6 | 7.0 | 0.00 | 0.00 | 0.00 | 44 | 1005.8 |
| 20260504012039 | 54 | 227 | 3.5 | 8.7 | 0.00 | 0.00 | 0.00 | 45 | 1005.7 |
| 20260504011554 | 54 | 261 | 2.6 | 10.4 | 0.00 | 0.00 | 0.00 | 43 | 1005.8 |
| 20260504011035 | 54 | 262 | 3.5 | 12.2 | 0.00 | 0.00 | 0.00 | 43 | 1005.7 |
| 20260504010538 | 54 | 213 | 3.5 | 12.2 | 0.00 | 0.00 | 0.00 | 44 | 1005.7 |
| 20260504010056 | 54 | 250 | 4.3 | 12.2 | 0.00 | 0.00 | 0.00 | 43 | 1005.6 |
| 20260504005534 | 54 | 247 | 3.5 | 10.4 | 0.00 | 0.00 | 0.00 | 42 | 1005.6 |
| 20260504005035 | 54 | 265 | 3.5 | 15.6 | 0.00 | 0.00 | 0.00 | 41 | 1005.5 |
| 20260504004548 | 54 | 243 | 7.0 | 15.6 | 0.00 | 0.00 | 0.00 | 42 | 1005.4 |
| 20260504004036 | 55 | 220 | 4.3 | 11.3 | 0.00 | 0.00 | 0.00 | 39 | 1005.3 |
| 20260504003536 | 55 | 0 | 2.6 | 8.7 | 0.00 | 0.00 | 0.00 | 40 | 1005.3 |
| 20260504003050 | 55 | 253 | 2.6 | 8.7 | 0.00 | 0.00 | 0.00 | 38 | 1005.2 |
| 20260504002536 | 55 | 239 | 3.5 | 7.8 | 0.00 | 0.00 | 0.00 | 38 | 1005.2 |
| 20260504002036 | 55 | 259 | 3.5 | 10.4 | 0.00 | 0.00 | 0.00 | 38 | 1005.2 |
| 20260504001544 | 55 | 259 | 2.6 | 13.9 | 0.00 | 0.00 | 0.00 | 38 | 1005.1 |
| 20260504001037 | 55 | 233 | 5.2 | 13.9 | 0.00 | 0.00 | 0.00 | 38 | 1005.1 |
| 20260504000535 | 56 | 230 | 4.3 | 12.2 | 0.00 | 0.00 | 0.00 | 36 | 1005.0 |
| 20260504000046 | 56 | 229 | 3.5 | 11.3 | 0.00 | 0.00 | 0.00 | 36 | 1005.0 |
| 20260503235538 | 56 | 260 | 4.3 | 10.4 | 0.00 | 0.00 | 0.00 | 35 | 1005.0 |
| 20260503235034 | 56 | 254 | 2.6 | 10.4 | 0.00 | 0.00 | 0.00 | 35 | 1004.9 |
| 20260503234551 | 56 | 267 | 4.3 | 10.4 | 0.00 | 0.00 | 0.00 | 34 | 1004.9 |
| 20260503234040 | 56 | 254 | 2.6 | 7.8 | 0.00 | 0.00 | 0.00 | 35 | 1004.9 |
| 20260503233537 | 56 | 264 | 0.9 | 5.2 | 0.00 | 0.00 | 0.00 | 33 | 1005.0 |
| 20260503233046 | 57 | 0 | 1.7 | 6.1 | 0.00 | 0.00 | 0.00 | 34 | 1004.8 |
| 20260503232537 | 57 | 263 | 0.9 | 7.0 | 0.00 | 0.00 | 0.00 | 33 | 1004.5 |
| 20260503232034 | 57 | 245 | 2.6 | 13.0 | 0.00 | 0.00 | 0.00 | 31 | 1004.6 |
| 20260503231551 | 57 | 267 | 4.3 | 13.0 | 0.00 | 0.00 | 0.00 | 30 | 1004.6 |
| 20260503231034 | 57 | 261 | 4.3 | 12.2 | 0.00 | 0.00 | 0.00 | 30 | 1004.5 |
| 20260503230537 | 57 | 282 | 3.5 | 8.7 | 0.00 | 0.00 | 0.00 | 31 | 1004.6 |
| 20260503230044 | 57 | 269 | 4.3 | 8.7 | 0.00 | 0.00 | 0.00 | 30 | 1004.6 |
| 20260503225536 | 57 | 240 | 2.6 | 12.2 | 0.00 | 0.00 | 0.00 | 31 | 1004.7 |
| 20260503225038 | 57 | 286 | 5.2 | 12.2 | 0.00 | 0.00 | 0.00 | 29 | 1004.6 |
| 20260503224548 | 57 | 265 | 3.5 | 13.9 | 0.00 | 0.00 | 0.00 | 30 | 1004.6 |
| 20260503224038 | 58 | 282 | 7.0 | 13.9 | 0.00 | 0.00 | 0.00 | 30 | 1004.6 |
| 20260503223539 | 58 | 311 | 4.3 | 13.0 | 0.00 | 0.00 | 0.00 | 36 | 1004.7 |
| 20260503223048 | 58 | 291 | 6.1 | 13.0 | 0.00 | 0.00 | 0.00 | 29 | 1004.7 |
| 20260503222538 | 58 | 222 | 6.1 | 11.3 | 0.00 | 0.00 | 0.00 | 27 | 1004.7 |
| 20260503222034 | 58 | 271 | 3.5 | 11.3 | 0.00 | 0.00 | 0.00 | 27 | 1005.0 |
| 20260503221548 | 58 | 278 | 4.3 | 11.3 | 0.00 | 0.00 | 0.00 | 29 | 1005.0 |
| 20260503221038 | 58 | 248 | 3.5 | 20.0 | 0.00 | 0.00 | 0.00 | 28 | 1004.9 |
| 20260503220538 | 58 | 284 | 4.3 | 20.0 | 0.00 | 0.00 | 0.00 | 28 | 1004.7 |
| 20260503220051 | 59 | 261 | 3.5 | 10.4 | 0.00 | 0.00 | 0.00 | 27 | 1004.8 |
| 20260503215538 | 58 | 280 | 6.1 | 12.2 | 0.00 | 0.00 | 0.00 | 28 | 1004.7 |
| 20260503215039 | 58 | 268 | 6.1 | 12.2 | 0.00 | 0.00 | 0.00 | 27 | 1004.8 |
| 20260503214549 | 58 | 328 | 7.0 | 13.9 | 0.00 | 0.00 | 0.00 | 27 | 1004.9 |
| 20260503214036 | 58 | 277 | 6.1 | 13.9 | 0.00 | 0.00 | 0.00 | 28 | 1004.8 |
| 20260503213538 | 58 | 253 | 6.1 | 12.2 | 0.00 | 0.00 | 0.00 | 30 | 1004.9 |
| 20260503213055 | 58 | 319 | 4.3 | 10.4 | 0.00 | 0.00 | 0.00 | 30 | 1004.9 |
| 20260503212535 | 58 | 294 | 6.1 | 15.6 | 0.00 | 0.00 | 0.00 | 27 | 1005.0 |
| 20260503212035 | 58 | 251 | 7.8 | 15.6 | 0.00 | 0.00 | 0.00 | 30 | 1004.9 |
| 20260503211541 | 58 | 282 | 5.2 | 16.5 | 0.00 | 0.00 | 0.00 | 31 | 1005.1 |
| 20260503211034 | 58 | 265 | 7.0 | 16.5 | 0.00 | 0.00 | 0.00 | 30 | 1005.1 |
| 20260503210535 | 58 | 255 | 2.6 | 12.2 | 0.00 | 0.00 | 0.00 | 31 | 1005.1 |
| 20260503210042 | 57 | 305 | 2.6 | 12.2 | 0.00 | 0.00 | 0.00 | 30 | 1004.9 |
| 20260503205534 | 57 | 244 | 5.2 | 12.2 | 0.00 | 0.00 | 0.00 | 29 | 1005.0 |
| 20260503205035 | 57 | 263 | 4.3 | 12.2 | 0.00 | 0.00 | 0.00 | 29 | 1005.1 |
| 20260503204541 | 57 | 267 | 6.1 | 12.2 | 0.00 | 0.00 | 0.00 | 28 | 1005.0 |
| 20260503204040 | 57 | 290 | 7.8 | 13.9 | 0.00 | 0.00 | 0.00 | 28 | 1005.2 |
| 20260503203535 | 57 | 290 | 7.0 | 13.9 | 0.00 | 0.00 | 0.00 | 29 | 1005.5 |
| 20260503203052 | 57 | 287 | 6.1 | 12.2 | 0.00 | 0.00 | 0.00 | 28 | 1005.3 |
| 20260503202534 | 57 | 281 | 3.5 | 14.8 | 0.00 | 0.00 | 0.00 | 39 | 1005.4 |
| 20260503202038 | 57 | 306 | 5.2 | 15.6 | 0.00 | 0.00 | 0.00 | 27 | 1005.3 |
| 20260503201547 | 57 | 251 | 7.0 | 15.6 | 0.00 | 0.00 | 0.00 | 28 | 1005.4 |
| 20260503201035 | 57 | 267 | 6.1 | 15.6 | 0.00 | 0.00 | 0.00 | 30 | 1005.5 |
| 20260503200537 | 56 | 253 | 7.8 | 17.4 | 0.00 | 0.00 | 0.00 | 28 | 1005.4 |
| 20260503200047 | 56 | 260 | 6.1 | 17.4 | 0.00 | 0.00 | 0.00 | 30 | 1005.7 |
| 20260503195534 | 57 | 274 | 7.0 | 17.4 | 0.00 | 0.00 | 0.00 | 29 | 1005.6 |
| 20260503195037 | 57 | 267 | 3.5 | 9.6 | 0.00 | 0.00 | 0.00 | 29 | 1005.7 |
| 20260503194543 | 57 | 275 | 2.6 | 11.3 | 0.00 | 0.00 | 0.00 | 32 | 1006.0 |
| 20260503194035 | 57 | 245 | 3.5 | 14.8 | 0.00 | 0.00 | 0.00 | 30 | 1005.9 |
| 20260503193535 | 57 | 288 | 4.3 | 16.5 | 0.00 | 0.00 | 0.00 | 28 | 1006.2 |
| 20260503193049 | 56 | 260 | 8.7 | 16.5 | 0.00 | 0.00 | 0.00 | 29 | 1006.2 |
| 20260503192534 | 57 | 280 | 6.1 | 16.5 | 0.00 | 0.00 | 0.00 | 30 | 1006.2 |
| 20260503192037 | 57 | 252 | 5.2 | 16.5 | 0.00 | 0.00 | 0.00 | 28 | 1006.3 |
| 20260503191549 | 56 | 240 | 6.1 | 18.2 | 0.00 | 0.00 | 0.00 | 30 | 1006.4 |
| 20260503191034 | 56 | 252 | 4.3 | 18.2 | 0.00 | 0.00 | 0.00 | 31 | 1006.3 |
| 20260503190538 | 55 | 252 | 8.7 | 18.2 | 0.00 | 0.00 | 0.00 | 31 | 1006.5 |
| 20260503190049 | 56 | 221 | 9.6 | 18.2 | 0.00 | 0.00 | 0.00 | 30 | 1006.5 |
| 20260503185538 | 56 | 234 | 2.6 | 8.7 | 0.00 | 0.00 | 0.00 | 30 | 1006.8 |
| 20260503185038 | 56 | 280 | 0.9 | 7.8 | 0.00 | 0.00 | 0.00 | 33 | 1006.6 |
| 20260503184555 | 55 | 302 | 2.6 | 8.7 | 0.00 | 0.00 | 0.00 | 36 | 1006.6 |
| 20260503184035 | 55 | 265 | 1.7 | 13.0 | 0.00 | 0.00 | 0.00 | 31 | 1006.6 |
| 20260503183538 | 55 | 263 | 5.2 | 13.0 | 0.00 | 0.00 | 0.00 | 33 | 1006.8 |
| 20260503183055 | 55 | 284 | 3.5 | 10.4 | 0.00 | 0.00 | 0.00 | 36 | 1006.9 |
| 20260503182537 | 54 | 296 | 3.5 | 12.2 | 0.00 | 0.00 | 0.00 | 35 | 1006.9 |
| 20260503182035 | 53 | 290 | 6.1 | 12.2 | 0.00 | 0.00 | 0.00 | 34 | 1007.0 |
| 20260503181543 | 54 | 309 | 6.1 | 11.3 | 0.00 | 0.00 | 0.00 | 38 | 1007.0 |
| 20260503181035 | 54 | 340 | 2.6 | 16.5 | 0.00 | 0.00 | 0.00 | 41 | 1007.2 |
| 20260503180535 | 54 | 273 | 5.2 | 16.5 | 0.00 | 0.00 | 0.00 | 35 | 1007.2 |
| 20260503180043 | 54 | 222 | 3.5 | 13.0 | 0.00 | 0.00 | 0.00 | 34 | 1007.3 |
| 20260503175534 | 54 | 290 | 7.8 | 18.2 | 0.00 | 0.00 | 0.00 | 33 | 1007.3 |
| 20260503175034 | 54 | 216 | 5.2 | 18.2 | 0.00 | 0.00 | 0.00 | 34 | 1007.3 |
| 20260503174550 | 54 | 235 | 4.3 | 13.0 | 0.00 | 0.00 | 0.00 | 34 | 1007.5 |
| 20260503174038 | 53 | 0 | 2.6 | 10.4 | 0.00 | 0.00 | 0.00 | 37 | 1007.5 |
| 20260503173538 | 52 | 307 | 5.2 | 16.5 | 0.00 | 0.00 | 0.00 | 35 | 1007.7 |
| 20260503173053 | 52 | 276 | 4.3 | 16.5 | 0.00 | 0.00 | 0.00 | 36 | 1007.7 |
| 20260503172541 | 51 | 313 | 6.1 | 11.3 | 0.00 | 0.00 | 0.00 | 43 | 1007.6 |
| 20260503172038 | 51 | 336 | 7.0 | 11.3 | 0.00 | 0.00 | 0.00 | 40 | 1007.8 |
| 20260503171542 | 52 | 288 | 5.2 | 9.6 | 0.00 | 0.00 | 0.00 | 40 | 1007.9 |
| 20260503171038 | 52 | 294 | 5.2 | 12.2 | 0.00 | 0.00 | 0.00 | 40 | 1007.8 |
| 20260503170538 | 52 | 258 | 3.5 | 12.2 | 0.00 | 0.00 | 0.00 | 40 | 1008.0 |
| 20260503150538 | 46 | 330 | 2.6 | 7.0 | 0.00 | 0.00 | 0.00 | 53 | 1010.0 |
| 20260503131039 | 42 | 335 | 3.5 | 7.0 | 0.00 | 0.00 | 0.00 | 64 | 1011.2 |
| 20260503130538 | 42 | 322 | 2.6 | 7.0 | 0.00 | 0.00 | 0.00 | 63 | 1011.2 |
| 20260503110536 | 40 | 259 | 1.7 | 7.0 | 0.00 | 0.00 | 0.00 | 67 | 1011.1 |
| 20260503081610 | 41 | 283 | 2.6 | 5.2 | 0.00 | 0.00 | 0.00 | 65 | 1011.2 |
| 20260503081038 | 41 | 276 | 1.7 | 4.3 | 0.00 | 0.00 | 0.00 | 65 | 1011.3 |
| 20260503080538 | 41 | 280 | 1.7 | 4.3 | 0.00 | 0.00 | 0.00 | 65 | 1011.3 |
| 20260503080108 | 41 | 290 | 1.7 | 5.2 | 0.00 | 0.00 | 0.00 | 65 | 1011.3 |
| 20260503072539 | 41 | 280 | 1.7 | 5.2 | 0.00 | 0.00 | 0.00 | 64 | 1011.3 |
| 20260503072038 | 41 | 286 | 1.7 | 4.3 | 0.00 | 0.00 | 0.00 | 64 | 1011.4 |
| 20260503071544 | 41 | 297 | 0.9 | 4.3 | 0.00 | 0.00 | 0.00 | 64 | 1011.3 |
| 20260503071038 | 41 | 0 | 0.9 | 4.3 | 0.00 | 0.00 | 0.00 | 63 | 1011.3 |
| 20260503070538 | 41 | 278 | 0.9 | 4.3 | 0.00 | 0.00 | 0.00 | 64 | 1011.3 |
| 20260503055041 | 42 | 253 | 2.6 | 7.8 | 0.00 | 0.00 | 0.00 | 63 | 1011.6 |
| 20260503054554 | 42 | 280 | 3.5 | 7.8 | 0.00 | 0.00 | 0.00 | 62 | 1011.6 |
| 20260503054036 | 42 | 281 | 2.6 | 5.2 | 0.00 | 0.00 | 0.00 | 63 | 1011.5 |
| 20260503053535 | 42 | 297 | 1.7 | 5.2 | 0.00 | 0.00 | 0.00 | 62 | 1011.6 |
| 20260503053047 | 42 | 296 | 2.6 | 7.0 | 0.00 | 0.00 | 0.00 | 61 | 1011.6 |
| 20260503052536 | 42 | 294 | 2.6 | 7.0 | 0.00 | 0.00 | 0.00 | 60 | 1011.6 |
| 20260503052039 | 42 | 293 | 2.6 | 7.0 | 0.00 | 0.00 | 0.00 | 60 | 1011.7 |
| 20260503051548 | 43 | 295 | 1.7 | 7.8 | 0.00 | 0.00 | 0.00 | 60 | 1011.7 |
| 20260503051035 | 43 | 297 | 1.7 | 8.7 | 0.00 | 0.00 | 0.00 | 60 | 1011.7 |
| 20260503050539 | 43 | 271 | 4.3 | 8.7 | 0.00 | 0.00 | 0.00 | 59 | 1011.7 |
| 20260503050048 | 43 | 280 | 3.5 | 7.8 | 0.00 | 0.00 | 0.00 | 60 | 1011.7 |
| 20260503045539 | 43 | 302 | 2.6 | 8.7 | 0.00 | 0.00 | 0.00 | 60 | 1011.8 |
| 20260503045039 | 43 | 269 | 3.5 | 8.7 | 0.00 | 0.00 | 0.00 | 59 | 1011.7 |
| 20260503044550 | 43 | 263 | 2.6 | 7.8 | 0.00 | 0.00 | 0.00 | 59 | 1011.8 |
| 20260503044038 | 43 | 276 | 3.5 | 7.8 | 0.00 | 0.00 | 0.00 | 58 | 1011.8 |
| 20260503043538 | 43 | 256 | 3.5 | 7.8 | 0.00 | 0.00 | 0.00 | 58 | 1011.9 |
| 20260503043050 | 43 | 269 | 2.6 | 7.0 | 0.00 | 0.00 | 0.00 | 57 | 1011.8 |